This is the latest recevied weather packets stored in our database for station/object W0AKY-13. If no packets are shown the sender has not sent any weather packets the latest 10 day(s).
| Time | Temp. | Humidity | Pressure | Rain* | Wind** | Luminosity | Snow |
|---|---|---|---|---|---|---|---|
| 1777799983 | 12.78° C | 51% | 1012.6 hPa | 0 mm | - | 0 W/m² | - |
| 1777799679 | 12.22° C | 49% | 1013.1 hPa | 0 mm | - | 0 W/m² | - |
| 1777799371 | 12.22° C | 51% | 1012.7 hPa | 0 mm | - | 0 W/m² | - |
| 1777799066 | 12.22° C | 52% | 1012.9 hPa | 0 mm | - | 0 W/m² | - |
| 1777798762 | 11.67° C | 52% | 1012.8 hPa | 0 mm | - | 0 W/m² | - |
| 1777798458 | 11.67° C | 53% | 1013.1 hPa | 0 mm | - | 0 W/m² | - |
| 1777798155 | 11.67° C | 53% | 1013.1 hPa | 0 mm | - | 0 W/m² | - |
| 1777797853 | 11.67° C | 55% | 1013 hPa | 0 mm | - | 0 W/m² | - |
| 1777797550 | 11.67° C | 54% | 1012.9 hPa | 0 mm | - | 0 W/m² | - |
| 1777797247 | 11.67° C | 53% | 1012.8 hPa | 0 mm | - | 0 W/m² | - |
| 1777796943 | 11.11° C | 54% | 1013 hPa | 0 mm | - | 0 W/m² | - |
| 1777796641 | 11.67° C | 55% | 1013.1 hPa | 0 mm | - | 0 W/m² | - |
| 1777796337 | 11.67° C | 54% | 1013.1 hPa | 0 mm | - | 0 W/m² | - |
| 1777796033 | 11.67° C | 55% | 1013.1 hPa | 0 mm | - | 0 W/m² | - |
| 1777795729 | 11.67° C | 54% | 1013.2 hPa | 0 mm | - | 0 W/m² | - |
| 1777795426 | 11.67° C | 54% | 1013.2 hPa | 0 mm | - | 0 W/m² | - |
| 1777795122 | 11.67° C | 55% | 1013.3 hPa | 0 mm | - | 0 W/m² | - |
| 1777794818 | 11.67° C | 52% | 1013.4 hPa | 0 mm | - | 0 W/m² | - |
| 1777794515 | 11.67° C | 52% | 1013.2 hPa | 0 mm | - | 0 W/m² | - |
| 1777794210 | 11.67° C | 51% | 1013.3 hPa | 0 mm | - | 0 W/m² | - |
| 1777793907 | 11.67° C | 52% | 1013.6 hPa | 0 mm | - | 0 W/m² | - |
| 1777793605 | 11.67° C | 53% | 1013.3 hPa | 0 mm | - | 0 W/m² | - |
| 1777793303 | 12.22° C | 52% | 1013.6 hPa | 0 mm | - | 0 W/m² | - |
| 1777792999 | 12.22° C | 52% | 1013.5 hPa | 0 mm | - | 0 W/m² | - |
| 1777792695 | 11.67° C | 53% | 1013.6 hPa | 0 mm | - | 0 W/m² | - |
* Rain latest hour (hover to see other rain measurements)
** Current wind speed in m/s (hover to see current wind gust speed)